SOYUZ-MS 19

Last updated on Wed Mar 30 2022 00:02:06 GMT+0000 (Coordinated Universal Time)

1 49269U 21089A 22087.65920538 .00008782 00000+0 16392-3 0 9995 2 49269 51.6451 15.4317 0004028 322.4689 97.0263 15.49602586332699
UTC large
Height (km)
Speed (km/s)
/
Latitude / Longitude
Inclination (degrees)
Orbital Period (minutes)
Azimuth
Elevation
Range (km)
Doppler Factor

Next 0 passes for location: London (51.5072 / 0.1276)

Sorry there are no passes over London.